Year,Month,Day,Hour,Minute,Value (Times are PST for temperature in C)
2007,06,08,00,00,10.20
2007,06,08,00,01,10.20
2007,06,08,00,02,10.10
2007,06,08,00,03,10.10
2007,06,08,00,04,10.10
2007,06,08,00,05,10.10
2007,06,08,00,06,10.10
2007,06,08,00,07,10.10
2007,06,08,00,08,10.10
2007,06,08,00,09,10.10
2007,06,08,00,10,10.10
2007,06,08,00,11,10.10
2007,06,08,00,12,10.10
2007,06,08,00,13,10.10
2007,06,08,00,14,10.10
2007,06,08,00,15,10.10
2007,06,08,00,16,10.00
2007,06,08,00,17,9.90
2007,06,08,00,18,9.90
2007,06,08,00,19,9.90
2007,06,08,00,20,9.90
2007,06,08,00,21,9.90
2007,06,08,00,22,9.90
2007,06,08,00,23,9.90
2007,06,08,00,24,9.90
2007,06,08,00,25,9.80
2007,06,08,00,26,9.80
2007,06,08,00,27,9.70
2007,06,08,00,28,9.70
2007,06,08,00,29,9.70
2007,06,08,00,30,9.70
2007,06,08,00,31,9.60
2007,06,08,00,32,9.60
2007,06,08,00,33,9.60
2007,06,08,00,34,9.60
2007,06,08,00,35,9.60
2007,06,08,00,36,9.50
2007,06,08,00,37,9.50
2007,06,08,00,38,9.50
2007,06,08,00,39,9.50
2007,06,08,00,40,9.50
2007,06,08,00,41,9.50
2007,06,08,00,42,9.50
2007,06,08,00,43,9.50
2007,06,08,00,44,9.50
2007,06,08,00,45,9.50
2007,06,08,00,46,9.50
2007,06,08,00,47,9.50
2007,06,08,00,48,9.40
2007,06,08,00,49,9.40
2007,06,08,00,50,9.40
2007,06,08,00,51,9.40
2007,06,08,00,52,9.40
2007,06,08,00,53,9.30
2007,06,08,00,54,9.30
2007,06,08,00,55,9.30
2007,06,08,00,56,9.30
2007,06,08,00,57,9.30
2007,06,08,00,58,9.30
2007,06,08,00,59,9.30
2007,06,08,01,00,9.30
2007,06,08,01,01,9.30
2007,06,08,01,02,9.30
2007,06,08,01,03,9.30
2007,06,08,01,04,9.30
2007,06,08,01,05,9.30
2007,06,08,01,06,9.20
2007,06,08,01,07,9.20
2007,06,08,01,08,9.20
2007,06,08,01,09,9.20
2007,06,08,01,10,9.20
2007,06,08,01,11,9.20
2007,06,08,01,12,9.20
2007,06,08,01,13,9.20
2007,06,08,01,14,9.20
2007,06,08,01,15,9.20
2007,06,08,01,16,9.20
2007,06,08,01,17,9.20
2007,06,08,01,18,9.20
2007,06,08,01,19,9.20
2007,06,08,01,20,9.20
2007,06,08,01,21,9.20
2007,06,08,01,22,9.10
2007,06,08,01,23,9.10
2007,06,08,01,24,9.10
2007,06,08,01,25,9.00
2007,06,08,01,26,9.00
2007,06,08,01,27,9.00
2007,06,08,01,28,9.00
2007,06,08,01,29,8.90
2007,06,08,01,30,8.80
2007,06,08,01,31,8.80
2007,06,08,01,32,8.70
2007,06,08,01,33,8.70
2007,06,08,01,34,8.70
2007,06,08,01,35,8.70
2007,06,08,01,36,8.60
2007,06,08,01,37,8.60
2007,06,08,01,38,8.50
2007,06,08,01,39,8.50
2007,06,08,01,40,8.40
2007,06,08,01,41,8.40
2007,06,08,01,42,8.40
2007,06,08,01,43,8.30
2007,06,08,01,44,8.30
2007,06,08,01,45,8.20
2007,06,08,01,46,8.20
2007,06,08,01,47,8.20
2007,06,08,01,48,8.20
2007,06,08,01,49,8.20
2007,06,08,01,50,8.10
2007,06,08,01,51,8.10
2007,06,08,01,52,8.10
2007,06,08,01,53,8.10
2007,06,08,01,54,8.00
2007,06,08,01,55,8.00
2007,06,08,01,56,7.90
2007,06,08,01,57,7.90
2007,06,08,01,58,7.90
2007,06,08,01,59,7.80
2007,06,08,02,00,7.80
2007,06,08,02,01,7.80
2007,06,08,02,02,7.80
2007,06,08,02,03,7.80
2007,06,08,02,04,7.70
2007,06,08,02,05,7.70
2007,06,08,02,06,7.60
2007,06,08,02,07,7.60
2007,06,08,02,08,7.60
2007,06,08,02,09,7.60
2007,06,08,02,10,7.60
2007,06,08,02,11,7.50
2007,06,08,02,12,7.50
2007,06,08,02,13,7.50
2007,06,08,02,14,7.50
2007,06,08,02,15,7.40
2007,06,08,02,16,7.40
2007,06,08,02,17,7.40
2007,06,08,02,18,7.40
2007,06,08,02,19,7.40
2007,06,08,02,20,7.30
2007,06,08,02,21,7.30
2007,06,08,02,22,7.30
2007,06,08,02,23,7.30
2007,06,08,02,24,7.30
2007,06,08,02,25,7.30
2007,06,08,02,26,7.30
2007,06,08,02,27,7.30
2007,06,08,02,28,7.30
2007,06,08,02,29,7.30
2007,06,08,02,30,7.30
2007,06,08,02,31,7.20
2007,06,08,02,32,7.20
2007,06,08,02,33,7.20
2007,06,08,02,34,7.20
2007,06,08,02,35,7.20
2007,06,08,02,36,7.10
2007,06,08,02,37,7.10
2007,06,08,02,38,7.10
2007,06,08,02,39,7.10
2007,06,08,02,40,7.10
2007,06,08,02,41,7.10
2007,06,08,02,42,7.00
2007,06,08,02,43,7.00
2007,06,08,02,44,7.00
2007,06,08,02,45,7.00
2007,06,08,02,46,7.00
2007,06,08,02,47,6.90
2007,06,08,02,48,6.90
2007,06,08,02,49,6.90
2007,06,08,02,50,6.90
2007,06,08,02,51,6.90
2007,06,08,02,52,6.90
2007,06,08,02,53,6.90
2007,06,08,02,54,6.90
2007,06,08,02,55,6.90
2007,06,08,02,56,6.80
2007,06,08,02,57,6.80
2007,06,08,02,58,6.80
2007,06,08,02,59,6.90
2007,06,08,03,00,6.90
2007,06,08,03,01,6.90
2007,06,08,03,02,6.90
2007,06,08,03,03,6.90
2007,06,08,03,04,6.80
2007,06,08,03,05,6.80
2007,06,08,03,06,6.80
2007,06,08,03,07,6.80
2007,06,08,03,08,6.80
2007,06,08,03,09,6.80
2007,06,08,03,10,6.80
2007,06,08,03,11,6.80
2007,06,08,03,12,6.80
2007,06,08,03,13,6.70
2007,06,08,03,14,6.70
2007,06,08,03,15,6.70
2007,06,08,03,16,6.70
2007,06,08,03,17,6.70
2007,06,08,03,18,6.70
2007,06,08,03,19,6.60
2007,06,08,03,20,6.60
2007,06,08,03,21,6.60
2007,06,08,03,22,6.60
2007,06,08,03,23,6.60
2007,06,08,03,24,6.60
2007,06,08,03,25,6.60
2007,06,08,03,26,6.60
2007,06,08,03,27,6.60
2007,06,08,03,28,6.60
2007,06,08,03,29,6.60
2007,06,08,03,30,6.60
2007,06,08,03,31,6.60
2007,06,08,03,32,6.60
2007,06,08,03,33,6.60
2007,06,08,03,34,6.60
2007,06,08,03,35,6.60
2007,06,08,03,36,6.50
2007,06,08,03,37,6.40
2007,06,08,03,38,6.40
2007,06,08,03,39,6.40
2007,06,08,03,40,6.40
2007,06,08,03,41,6.40
2007,06,08,03,42,6.40
2007,06,08,03,43,6.40
2007,06,08,03,44,6.40
2007,06,08,03,45,6.40
2007,06,08,03,46,6.30
2007,06,08,03,47,6.30
2007,06,08,03,48,6.30
2007,06,08,03,49,6.30
2007,06,08,03,50,6.30
2007,06,08,03,51,6.30
2007,06,08,03,52,6.30
2007,06,08,03,53,6.30
2007,06,08,03,54,6.30
2007,06,08,03,55,6.30
2007,06,08,03,56,6.30
2007,06,08,03,57,6.30
2007,06,08,03,58,6.30
2007,06,08,03,59,6.30
2007,06,08,04,00,6.30
2007,06,08,04,01,6.30
2007,06,08,04,02,6.30
2007,06,08,04,03,6.40
2007,06,08,04,04,6.40
2007,06,08,04,05,6.40
2007,06,08,04,06,6.40
2007,06,08,04,07,6.40
2007,06,08,04,08,6.40
2007,06,08,04,09,6.40
2007,06,08,04,10,6.40
2007,06,08,04,11,6.40
2007,06,08,04,12,6.40
2007,06,08,04,13,6.40
2007,06,08,04,14,6.40
2007,06,08,04,15,6.40
2007,06,08,04,16,6.40
2007,06,08,04,17,6.40
2007,06,08,04,18,6.40
2007,06,08,04,19,6.40
2007,06,08,04,20,6.40
2007,06,08,04,21,6.30
2007,06,08,04,22,6.30
2007,06,08,04,23,6.30
2007,06,08,04,24,6.20
2007,06,08,04,25,6.20
2007,06,08,04,26,6.20
2007,06,08,04,27,6.20
2007,06,08,04,28,6.20
2007,06,08,04,29,6.20
2007,06,08,04,30,6.10
2007,06,08,04,31,6.10
2007,06,08,04,32,6.10
2007,06,08,04,33,6.00
2007,06,08,04,34,6.00
2007,06,08,04,35,6.00
2007,06,08,04,36,5.90
2007,06,08,04,37,5.90
2007,06,08,04,38,5.90
2007,06,08,04,39,5.90
2007,06,08,04,40,5.90
2007,06,08,04,41,5.80
2007,06,08,04,42,5.80
2007,06,08,04,43,5.80
2007,06,08,04,44,5.80
2007,06,08,04,45,5.70
2007,06,08,04,46,5.70
2007,06,08,04,47,5.70
2007,06,08,04,48,5.70
2007,06,08,04,49,5.70
2007,06,08,04,50,5.70
2007,06,08,04,51,5.70
2007,06,08,04,52,5.70
2007,06,08,04,53,5.70
2007,06,08,04,54,5.70
2007,06,08,04,55,5.70
2007,06,08,04,56,5.70
2007,06,08,04,57,5.70
2007,06,08,04,58,5.70
2007,06,08,04,59,5.70
2007,06,08,05,00,5.70
2007,06,08,05,01,5.70
2007,06,08,05,02,5.70
2007,06,08,05,03,5.70
2007,06,08,05,04,5.70
2007,06,08,05,05,5.70
2007,06,08,05,06,5.70
2007,06,08,05,07,5.70
2007,06,08,05,08,5.70
2007,06,08,05,09,5.70
2007,06,08,05,10,5.60
2007,06,08,05,11,5.60
2007,06,08,05,12,5.60
2007,06,08,05,13,5.60
2007,06,08,05,14,5.50
2007,06,08,05,15,5.50
2007,06,08,05,16,5.50
2007,06,08,05,17,5.50
2007,06,08,05,18,5.50
2007,06,08,05,19,5.50
2007,06,08,05,20,5.50
2007,06,08,05,21,5.50
2007,06,08,05,22,5.50
2007,06,08,05,23,5.50
2007,06,08,05,24,5.50
2007,06,08,05,25,5.50
2007,06,08,05,26,5.50
2007,06,08,05,27,5.50
2007,06,08,05,28,5.40
2007,06,08,05,29,5.40
2007,06,08,05,30,5.40
2007,06,08,05,31,5.40
2007,06,08,05,32,5.40
2007,06,08,05,33,5.40
2007,06,08,05,34,5.40
2007,06,08,05,35,5.40
2007,06,08,05,36,5.40
2007,06,08,05,37,5.40
2007,06,08,05,38,5.40
2007,06,08,05,39,5.30
2007,06,08,05,40,5.30
2007,06,08,05,41,5.30
2007,06,08,05,42,5.40
2007,06,08,05,43,5.40
2007,06,08,05,44,5.40
2007,06,08,05,45,5.40
2007,06,08,05,46,5.40
2007,06,08,05,47,5.40
2007,06,08,05,48,5.40
2007,06,08,05,49,5.40
2007,06,08,05,50,5.30
2007,06,08,05,51,5.30
2007,06,08,05,52,5.30
2007,06,08,05,53,5.30
2007,06,08,05,54,5.30
2007,06,08,05,55,5.30
2007,06,08,05,56,5.30
2007,06,08,05,57,5.30
2007,06,08,05,58,5.30
2007,06,08,05,59,5.40
2007,06,08,06,00,5.40
2007,06,08,06,01,5.40
2007,06,08,06,02,5.40
2007,06,08,06,03,5.40
2007,06,08,06,04,5.40
2007,06,08,06,05,5.40
2007,06,08,06,06,5.40
2007,06,08,06,07,5.50
2007,06,08,06,08,5.50
2007,06,08,06,09,5.50
2007,06,08,06,10,5.50
2007,06,08,06,11,5.50
2007,06,08,06,12,5.50
2007,06,08,06,13,5.50
2007,06,08,06,14,5.50
2007,06,08,06,15,5.60
2007,06,08,06,16,5.60
2007,06,08,06,17,5.60
2007,06,08,06,18,5.60
2007,06,08,06,19,5.60
2007,06,08,06,20,5.60
2007,06,08,06,21,5.60
2007,06,08,06,22,5.60
2007,06,08,06,23,5.70
2007,06,08,06,24,5.70
2007,06,08,06,25,5.70
2007,06,08,06,26,5.70
2007,06,08,06,27,5.70
2007,06,08,06,28,5.80
2007,06,08,06,29,5.80
2007,06,08,06,30,5.80
2007,06,08,06,31,5.80
2007,06,08,06,32,5.90
2007,06,08,06,33,5.90
2007,06,08,06,34,5.90
2007,06,08,06,35,6.00
2007,06,08,06,36,6.00
2007,06,08,06,37,6.00
2007,06,08,06,38,6.00
2007,06,08,06,39,6.10
2007,06,08,06,40,6.10
2007,06,08,06,41,6.20
2007,06,08,06,42,6.20
2007,06,08,06,43,6.20
2007,06,08,06,44,6.20
2007,06,08,06,45,6.20
2007,06,08,06,46,6.20
2007,06,08,06,47,6.20
2007,06,08,06,48,6.30
2007,06,08,06,49,6.40
2007,06,08,06,50,6.40
2007,06,08,06,51,6.40
2007,06,08,06,52,6.50
2007,06,08,06,53,6.60
2007,06,08,06,54,6.60
2007,06,08,06,55,6.70
2007,06,08,06,56,6.80
2007,06,08,06,57,6.90
2007,06,08,06,58,7.10
2007,06,08,06,59,7.20
2007,06,08,07,00,7.30
2007,06,08,07,01,7.40
2007,06,08,07,02,7.50
2007,06,08,07,03,7.60
2007,06,08,07,04,7.60
2007,06,08,07,05,7.70
2007,06,08,07,06,7.80
2007,06,08,07,07,7.80
2007,06,08,07,08,7.80
2007,06,08,07,09,7.90
2007,06,08,07,10,7.90
2007,06,08,07,11,7.90
2007,06,08,07,12,8.00
2007,06,08,07,13,8.00
2007,06,08,07,14,8.00
2007,06,08,07,15,8.10
2007,06,08,07,16,8.10
2007,06,08,07,17,8.20
2007,06,08,07,18,8.30
2007,06,08,07,19,8.30
2007,06,08,07,20,8.40
2007,06,08,07,21,8.50
2007,06,08,07,22,8.50
2007,06,08,07,23,8.60
2007,06,08,07,24,8.70
2007,06,08,07,25,8.70
2007,06,08,07,26,8.80
2007,06,08,07,27,8.90
2007,06,08,07,28,9.00
2007,06,08,07,29,9.00
2007,06,08,07,30,9.10
2007,06,08,07,31,9.20
2007,06,08,07,32,9.20
2007,06,08,07,33,9.30
2007,06,08,07,34,9.40
2007,06,08,07,35,9.50
2007,06,08,07,36,9.50
2007,06,08,07,37,9.60
2007,06,08,07,38,9.70
2007,06,08,07,39,9.70
2007,06,08,07,40,9.70
2007,06,08,07,41,9.70
2007,06,08,07,42,9.70
2007,06,08,07,43,9.80
2007,06,08,07,44,9.80
2007,06,08,07,45,9.90
2007,06,08,07,46,9.90
2007,06,08,07,47,9.90
2007,06,08,07,48,10.10
2007,06,08,07,49,10.10
2007,06,08,07,50,10.20
2007,06,08,07,51,10.30
2007,06,08,07,52,10.40
2007,06,08,07,53,10.40
2007,06,08,07,54,10.60
2007,06,08,07,55,10.60
2007,06,08,07,56,10.70
2007,06,08,07,57,10.80
2007,06,08,07,58,10.90
2007,06,08,07,59,11.00
2007,06,08,08,00,11.10
2007,06,08,08,01,11.20
2007,06,08,08,02,11.30
2007,06,08,08,03,11.30
2007,06,08,08,04,11.30
2007,06,08,08,05,11.40
2007,06,08,08,06,11.40
2007,06,08,08,07,11.40
2007,06,08,08,08,11.40
2007,06,08,08,09,11.40
2007,06,08,08,10,11.40
2007,06,08,08,11,11.40
2007,06,08,08,12,11.50
2007,06,08,08,13,11.60
2007,06,08,08,14,11.60
2007,06,08,08,15,11.70
2007,06,08,08,16,11.80
2007,06,08,08,17,11.80
2007,06,08,08,18,11.90
2007,06,08,08,19,12.00
2007,06,08,08,20,12.00
2007,06,08,08,21,12.10
2007,06,08,08,22,12.10
2007,06,08,08,23,12.20
2007,06,08,08,24,12.20
2007,06,08,08,25,12.30
2007,06,08,08,26,12.40
2007,06,08,08,27,12.50
2007,06,08,08,28,12.60
2007,06,08,08,29,12.80
2007,06,08,08,30,12.90
2007,06,08,08,31,13.00
2007,06,08,08,32,13.10
2007,06,08,08,33,13.20
2007,06,08,08,34,13.20
2007,06,08,08,35,13.30
2007,06,08,08,36,13.30
2007,06,08,08,37,13.30
2007,06,08,08,38,13.30
2007,06,08,08,39,13.40
2007,06,08,08,40,13.50
2007,06,08,08,41,13.50
2007,06,08,08,42,13.60
2007,06,08,08,43,13.60
2007,06,08,08,44,13.70
2007,06,08,08,45,13.80
2007,06,08,08,46,13.80
2007,06,08,08,47,13.80
2007,06,08,08,48,13.80
2007,06,08,08,49,13.90
2007,06,08,08,50,13.90
2007,06,08,08,51,13.90
2007,06,08,08,52,13.80
2007,06,08,08,53,13.80
2007,06,08,08,54,13.80
2007,06,08,08,55,13.80
2007,06,08,08,56,13.90
2007,06,08,08,57,13.90
2007,06,08,08,58,14.00
2007,06,08,08,59,14.00
2007,06,08,09,00,14.10
2007,06,08,09,01,14.20
2007,06,08,09,02,14.30
2007,06,08,09,03,14.40
2007,06,08,09,04,14.40
2007,06,08,09,05,14.40
2007,06,08,09,06,14.40
2007,06,08,09,07,14.40
2007,06,08,09,08,14.40
2007,06,08,09,09,14.50
2007,06,08,09,10,14.60
2007,06,08,09,11,14.70
2007,06,08,09,12,14.70
2007,06,08,09,13,14.70
2007,06,08,09,14,14.60
2007,06,08,09,15,14.50
2007,06,08,09,16,14.50
2007,06,08,09,17,14.50
2007,06,08,09,18,14.50
2007,06,08,09,19,14.50
2007,06,08,09,20,14.60
2007,06,08,09,21,14.60
2007,06,08,09,22,14.60
2007,06,08,09,23,14.60
2007,06,08,09,24,14.60
2007,06,08,09,25,14.70
2007,06,08,09,26,14.70
2007,06,08,09,27,14.80
2007,06,08,09,28,14.80
2007,06,08,09,29,14.90
2007,06,08,09,30,14.90
2007,06,08,09,31,14.90
2007,06,08,09,32,14.90
2007,06,08,09,33,15.00
2007,06,08,09,34,15.00
2007,06,08,09,35,15.10
2007,06,08,09,36,15.20
2007,06,08,09,37,15.30
2007,06,08,09,38,15.40
2007,06,08,09,39,15.50
2007,06,08,09,40,15.50
2007,06,08,09,41,15.50
2007,06,08,09,42,15.50
2007,06,08,09,43,15.40
2007,06,08,09,44,15.30
2007,06,08,09,45,15.30
2007,06,08,09,46,15.30
2007,06,08,09,47,15.30
2007,06,08,09,48,15.40
2007,06,08,09,49,15.40
2007,06,08,09,50,15.40
2007,06,08,09,51,15.30
2007,06,08,09,52,15.30
2007,06,08,09,53,15.20
2007,06,08,09,54,15.10
2007,06,08,09,55,15.00
2007,06,08,09,56,14.90
2007,06,08,09,57,14.80
2007,06,08,09,58,14.80
2007,06,08,09,59,14.90
2007,06,08,10,00,14.90
2007,06,08,10,01,14.80
2007,06,08,10,02,14.80
2007,06,08,10,03,14.90
2007,06,08,10,04,15.10
2007,06,08,10,05,15.20
2007,06,08,10,06,15.30
2007,06,08,10,07,15.30
2007,06,08,10,08,15.30
2007,06,08,10,09,15.30
2007,06,08,10,10,15.30
2007,06,08,10,11,15.20
2007,06,08,10,12,15.20
2007,06,08,10,13,15.30
2007,06,08,10,14,15.20
2007,06,08,10,15,15.10
2007,06,08,10,16,15.10
2007,06,08,10,17,15.10
2007,06,08,10,18,15.20
2007,06,08,10,19,15.10
2007,06,08,10,20,15.10
2007,06,08,10,21,15.00
2007,06,08,10,22,14.90
2007,06,08,10,23,14.90
2007,06,08,10,24,14.80
2007,06,08,10,25,14.80
2007,06,08,10,26,14.70
2007,06,08,10,27,14.70
2007,06,08,10,28,14.70
2007,06,08,10,29,14.70
2007,06,08,10,30,14.70
2007,06,08,10,31,14.80
2007,06,08,10,32,14.90
2007,06,08,10,33,14.90
2007,06,08,10,34,14.90
2007,06,08,10,35,14.90
2007,06,08,10,36,14.90
2007,06,08,10,37,14.90
2007,06,08,10,38,14.90
2007,06,08,10,39,14.90
2007,06,08,10,40,15.00
2007,06,08,10,41,15.00
2007,06,08,10,42,15.10
2007,06,08,10,43,15.10
2007,06,08,10,44,15.10
2007,06,08,10,45,15.10
2007,06,08,10,46,15.00
2007,06,08,10,47,15.00
2007,06,08,10,48,15.00
2007,06,08,10,49,15.10
2007,06,08,10,50,15.20
2007,06,08,10,51,15.20
2007,06,08,10,52,15.20
2007,06,08,10,53,15.10
2007,06,08,10,54,15.10
2007,06,08,10,55,15.10
2007,06,08,10,56,15.10
2007,06,08,10,57,15.00
2007,06,08,10,58,15.00
2007,06,08,10,59,15.00
2007,06,08,11,00,15.10
2007,06,08,11,01,15.10
2007,06,08,11,02,15.20
2007,06,08,11,03,15.30
2007,06,08,11,04,15.50
2007,06,08,11,05,15.50
2007,06,08,11,06,15.60
2007,06,08,11,07,15.60
2007,06,08,11,08,15.70
2007,06,08,11,09,15.60
2007,06,08,11,10,15.70
2007,06,08,11,11,15.80
2007,06,08,11,12,15.80
2007,06,08,11,13,15.80
2007,06,08,11,14,15.80
2007,06,08,11,15,15.80
2007,06,08,11,16,15.80
2007,06,08,11,17,15.80
2007,06,08,11,18,15.80
2007,06,08,11,19,15.90
2007,06,08,11,20,16.00
2007,06,08,11,21,16.10
2007,06,08,11,22,16.10
2007,06,08,11,23,16.20
2007,06,08,11,24,16.20
2007,06,08,11,25,16.20
2007,06,08,11,26,16.20
2007,06,08,11,27,16.20
2007,06,08,11,28,16.10
2007,06,08,11,29,16.10
2007,06,08,11,30,16.10
2007,06,08,11,31,16.00
2007,06,08,11,32,15.80
2007,06,08,11,33,15.80
2007,06,08,11,34,15.80
2007,06,08,11,35,15.80
2007,06,08,11,36,15.80
2007,06,08,11,37,15.80
2007,06,08,11,38,15.80
2007,06,08,11,39,15.80
2007,06,08,11,40,15.70
2007,06,08,11,41,15.60
2007,06,08,11,42,15.60
2007,06,08,11,43,15.70
2007,06,08,11,44,15.70
2007,06,08,11,45,15.70
2007,06,08,11,46,15.80
2007,06,08,11,47,15.90
2007,06,08,11,48,15.90
2007,06,08,11,49,15.90
2007,06,08,11,50,15.90
2007,06,08,11,51,15.90
2007,06,08,11,52,15.90
2007,06,08,11,53,16.00
2007,06,08,11,54,16.10
2007,06,08,11,55,16.10
2007,06,08,11,56,16.10
2007,06,08,11,57,16.10
2007,06,08,11,58,16.10
2007,06,08,11,59,16.10
2007,06,08,12,00,16.10
2007,06,08,12,01,16.20
2007,06,08,12,02,16.20
2007,06,08,12,03,16.20
2007,06,08,12,04,16.10
2007,06,08,12,05,16.10
2007,06,08,12,06,16.30
2007,06,08,12,07,16.30
2007,06,08,12,08,16.40
2007,06,08,12,09,16.40
2007,06,08,12,10,16.40
2007,06,08,12,11,16.30
2007,06,08,12,12,16.20
2007,06,08,12,13,16.20
2007,06,08,12,14,16.10
2007,06,08,12,15,16.10
2007,06,08,12,16,16.30
2007,06,08,12,17,16.30
2007,06,08,12,18,16.30
2007,06,08,12,19,16.10
2007,06,08,12,20,16.20
2007,06,08,12,21,16.20
2007,06,08,12,22,16.30
2007,06,08,12,23,16.30
2007,06,08,12,24,16.40
2007,06,08,12,25,16.40
2007,06,08,12,26,16.30
2007,06,08,12,27,16.20
2007,06,08,12,28,16.20
2007,06,08,12,29,16.10
2007,06,08,12,30,16.10
2007,06,08,12,31,16.20
2007,06,08,12,32,16.20
2007,06,08,12,33,16.30
2007,06,08,12,34,16.40
2007,06,08,12,35,16.40
2007,06,08,12,36,16.40
2007,06,08,12,37,16.40
2007,06,08,12,38,16.40
2007,06,08,12,39,16.40
2007,06,08,12,40,16.40
2007,06,08,12,41,16.40
2007,06,08,12,42,16.40
2007,06,08,12,43,16.50
2007,06,08,12,44,16.50
2007,06,08,12,45,16.40
2007,06,08,12,46,16.40
2007,06,08,12,47,16.40
2007,06,08,12,48,16.40
2007,06,08,12,49,16.40
2007,06,08,12,50,16.60
2007,06,08,12,51,16.50
2007,06,08,12,52,16.40
2007,06,08,12,53,16.30
2007,06,08,12,54,16.30
2007,06,08,12,55,16.30
2007,06,08,12,56,16.40
2007,06,08,12,57,16.40
2007,06,08,12,58,16.40
2007,06,08,12,59,16.30
2007,06,08,13,00,16.20
2007,06,08,13,01,16.20
2007,06,08,13,02,16.20
2007,06,08,13,03,16.30
2007,06,08,13,04,16.30
2007,06,08,13,05,16.30
2007,06,08,13,06,16.40
2007,06,08,13,07,16.50
2007,06,08,13,08,16.70
2007,06,08,13,09,16.70
2007,06,08,13,10,16.60
2007,06,08,13,11,16.50
2007,06,08,13,12,16.40
2007,06,08,13,13,16.40
2007,06,08,13,14,16.40
2007,06,08,13,15,16.40
2007,06,08,13,16,16.40
2007,06,08,13,17,16.40
2007,06,08,13,18,16.70
2007,06,08,13,19,16.80
2007,06,08,13,20,16.80
2007,06,08,13,21,16.80
2007,06,08,13,22,16.70
2007,06,08,13,23,16.60
2007,06,08,13,24,16.40
2007,06,08,13,25,16.40
2007,06,08,13,26,16.50
2007,06,08,13,27,16.60
2007,06,08,13,28,16.70
2007,06,08,13,29,16.70
2007,06,08,13,30,16.70
2007,06,08,13,31,16.70
2007,06,08,13,32,16.60
2007,06,08,13,33,16.60
2007,06,08,13,34,16.40
2007,06,08,13,35,16.40
2007,06,08,13,36,16.40
2007,06,08,13,37,16.40
2007,06,08,13,38,16.40
2007,06,08,13,39,16.40
2007,06,08,13,40,16.40
2007,06,08,13,41,16.40
2007,06,08,13,42,16.40
2007,06,08,13,43,16.40
2007,06,08,13,44,16.30
2007,06,08,13,45,16.30
2007,06,08,13,46,16.40
2007,06,08,13,47,16.40
2007,06,08,13,48,16.30
2007,06,08,13,49,16.40
2007,06,08,13,50,16.40
2007,06,08,13,51,16.40
2007,06,08,13,52,16.40
2007,06,08,13,53,16.30
2007,06,08,13,54,16.30
2007,06,08,13,55,16.20
2007,06,08,13,56,16.30
2007,06,08,13,57,16.40
2007,06,08,13,58,16.40
2007,06,08,13,59,16.50
2007,06,08,14,00,16.60
2007,06,08,14,01,16.60
2007,06,08,14,02,16.60
2007,06,08,14,03,16.60
2007,06,08,14,04,16.60
2007,06,08,14,05,16.50
2007,06,08,14,06,16.40
2007,06,08,14,07,16.50
2007,06,08,14,08,16.60
2007,06,08,14,09,16.70
2007,06,08,14,10,16.90
2007,06,08,14,11,17.00
2007,06,08,14,12,17.10
2007,06,08,14,13,17.00
2007,06,08,14,14,16.90
2007,06,08,14,15,16.90
2007,06,08,14,16,16.90
2007,06,08,14,17,16.90
2007,06,08,14,18,16.90
2007,06,08,14,19,17.00
2007,06,08,14,20,17.00
2007,06,08,14,21,17.00
2007,06,08,14,22,16.90
2007,06,08,14,23,16.80
2007,06,08,14,24,16.90
2007,06,08,14,25,16.90
2007,06,08,14,26,16.90
2007,06,08,14,27,17.00
2007,06,08,14,28,17.10
2007,06,08,14,29,17.20
2007,06,08,14,30,17.30
2007,06,08,14,31,17.30
2007,06,08,14,32,17.30
2007,06,08,14,33,17.20
2007,06,08,14,34,17.20
2007,06,08,14,35,17.10
2007,06,08,14,36,17.10
2007,06,08,14,37,17.20
2007,06,08,14,38,17.40
2007,06,08,14,39,17.50
2007,06,08,14,40,17.60
2007,06,08,14,41,17.50
2007,06,08,14,42,17.40
2007,06,08,14,43,17.30
2007,06,08,14,44,17.30
2007,06,08,14,45,17.30
2007,06,08,14,46,17.30
2007,06,08,14,47,17.30
2007,06,08,14,48,17.40
2007,06,08,14,49,17.30
2007,06,08,14,50,17.30
2007,06,08,14,51,17.30
2007,06,08,14,52,17.20
2007,06,08,14,53,17.10
2007,06,08,14,54,17.10
2007,06,08,14,55,17.00
2007,06,08,14,56,17.00
2007,06,08,14,57,17.00
2007,06,08,14,58,16.90
2007,06,08,14,59,16.80
2007,06,08,15,00,16.70
2007,06,08,15,01,16.70
2007,06,08,15,02,16.70
2007,06,08,15,03,16.80
2007,06,08,15,04,16.90
2007,06,08,15,05,17.00
2007,06,08,15,06,17.10
2007,06,08,15,07,17.10
2007,06,08,15,08,17.10
2007,06,08,15,09,17.10
2007,06,08,15,10,17.00
2007,06,08,15,11,16.90
2007,06,08,15,12,16.90
2007,06,08,15,13,17.00
2007,06,08,15,14,17.00
2007,06,08,15,15,17.00
2007,06,08,15,16,17.00
2007,06,08,15,17,17.00
2007,06,08,15,18,17.00
2007,06,08,15,19,17.00
2007,06,08,15,20,17.00
2007,06,08,15,21,17.00
2007,06,08,15,22,17.00
2007,06,08,15,23,17.00
2007,06,08,15,24,16.90
2007,06,08,15,25,17.00
2007,06,08,15,26,17.00
2007,06,08,15,27,17.10
2007,06,08,15,28,17.20
2007,06,08,15,29,17.20
2007,06,08,15,30,17.20
2007,06,08,15,31,17.30
2007,06,08,15,32,17.40
2007,06,08,15,33,17.40
2007,06,08,15,34,17.50
2007,06,08,15,35,17.50
2007,06,08,15,36,17.50
2007,06,08,15,37,17.60
2007,06,08,15,38,17.70
2007,06,08,15,39,17.70
2007,06,08,15,40,17.70
2007,06,08,15,41,17.60
2007,06,08,15,42,17.60
2007,06,08,15,43,17.60
2007,06,08,15,44,17.50
2007,06,08,15,45,17.40
2007,06,08,15,46,17.30
2007,06,08,15,47,17.40
2007,06,08,15,48,17.40
2007,06,08,15,49,17.40
2007,06,08,15,50,17.40
2007,06,08,15,51,17.40
2007,06,08,15,52,17.30
2007,06,08,15,53,17.30
2007,06,08,15,54,17.30
2007,06,08,15,55,17.40
2007,06,08,15,56,17.40
2007,06,08,15,57,17.50
2007,06,08,15,58,17.60
2007,06,08,15,59,17.70
2007,06,08,16,00,17.80
2007,06,08,16,01,17.80
2007,06,08,16,02,17.80
2007,06,08,16,03,17.60
2007,06,08,16,04,17.50
2007,06,08,16,05,17.40
2007,06,08,16,06,17.40
2007,06,08,16,07,17.30
2007,06,08,16,08,17.30
2007,06,08,16,09,17.30
2007,06,08,16,10,17.30
2007,06,08,16,11,17.10
2007,06,08,16,12,17.10
2007,06,08,16,13,17.10
2007,06,08,16,14,17.20
2007,06,08,16,15,17.30
2007,06,08,16,16,17.30
2007,06,08,16,17,17.30
2007,06,08,16,18,17.30
2007,06,08,16,19,17.30
2007,06,08,16,20,17.40
2007,06,08,16,21,17.40
2007,06,08,16,22,17.40
2007,06,08,16,23,17.30
2007,06,08,16,24,17.30
2007,06,08,16,25,17.20
2007,06,08,16,26,17.20
2007,06,08,16,27,17.20
2007,06,08,16,28,17.30
2007,06,08,16,29,17.20
2007,06,08,16,30,17.10
2007,06,08,16,31,17.10
2007,06,08,16,32,17.10
2007,06,08,16,33,17.10
2007,06,08,16,34,17.10
2007,06,08,16,35,17.10
2007,06,08,16,36,17.20
2007,06,08,16,37,17.20
2007,06,08,16,38,17.20
2007,06,08,16,39,17.10
2007,06,08,16,40,17.00
2007,06,08,16,41,17.00
2007,06,08,16,42,16.90
2007,06,08,16,43,16.90
2007,06,08,16,44,16.90
2007,06,08,16,45,16.90
2007,06,08,16,46,16.90
2007,06,08,16,47,16.90
2007,06,08,16,48,16.90
2007,06,08,16,49,17.00
2007,06,08,16,50,17.00
2007,06,08,16,51,17.00
2007,06,08,16,52,17.00
2007,06,08,16,53,17.10
2007,06,08,16,54,17.10
2007,06,08,16,55,17.00
2007,06,08,16,56,17.00
2007,06,08,16,57,17.00
2007,06,08,16,58,17.10
2007,06,08,16,59,17.10
2007,06,08,17,00,17.20
2007,06,08,17,01,17.30
2007,06,08,17,02,17.30
2007,06,08,17,03,17.30
2007,06,08,17,04,17.30
2007,06,08,17,05,17.40
2007,06,08,17,06,17.50
2007,06,08,17,07,17.60
2007,06,08,17,08,17.60
2007,06,08,17,09,17.50
2007,06,08,17,10,17.50
2007,06,08,17,11,17.40
2007,06,08,17,12,17.40
2007,06,08,17,13,17.40
2007,06,08,17,14,17.40
2007,06,08,17,15,17.40
2007,06,08,17,16,17.30
2007,06,08,17,17,17.30
2007,06,08,17,18,17.40
2007,06,08,17,19,17.40
2007,06,08,17,20,17.40
2007,06,08,17,21,17.40
2007,06,08,17,22,17.40
2007,06,08,17,23,17.40
2007,06,08,17,24,17.40
2007,06,08,17,25,17.50
2007,06,08,17,26,17.50
2007,06,08,17,27,17.40
2007,06,08,17,28,17.30
2007,06,08,17,29,17.30
2007,06,08,17,30,17.30
2007,06,08,17,31,17.30
2007,06,08,17,32,17.30
2007,06,08,17,33,17.40
2007,06,08,17,34,17.40
2007,06,08,17,35,17.30
2007,06,08,17,36,17.30
2007,06,08,17,37,17.30
2007,06,08,17,38,17.20
2007,06,08,17,39,17.20